Tracking 17147 objects as of 3-July-2015
HD Live streaming from Space Station

NAVSTAR 33 (USA 92)

Track NAVSTAR 33 (USA 92) now!
NAVSTAR 33 (USA 92) is classified as:


NORAD ID: 22700
Int'l Code: 1993-042A
Perigee: 19,740.0 km
Apogee: 20,639.9 km
Inclination: 56.1 °
Period: 718.0 minutes
Semi major axis: 26560 km
RCS: 3.4011 m2 (large)
Launch date: June 26, 1993
Source: United States (US)
PRN:
Your satellite tracking list
Your tracking list is empty





NASA's NSSDC Master Catalog

Two Line Element Set (TLE):
1 22700U 93042A   15182.56965916 -.00000052  00000-0  00000+0 0  9990
2 22700 056.0630 309.4381 0169392 113.4036 230.2065 02.00556659161205

Source of the keplerian elements: AFSPC

N2YO: 301